Regional Weather Roundup
Issued by NWS

Home | Current Version | Previous Version | Text Only | Print | Product List | Glossary Off
Versions: 1 2 3 4 5 6 7 8 9 10 11 12 13 14 15 16 17 18 19 20 21 22 23 24 25 26 27 28 29 30 31 32 33 34 35 36 37 38 39 40 41 42 43 44 45 46 47 48 49 50

000
ASUS45 KPSR 261710
RWRAZ

ARIZONA REGIONAL HOURLY WEATHER ROUNDUP
NATIONAL WEATHER SERVICE PHOENIX AZ
1000 AM MST FRI DEC 26 2014

NOTE: FAIR INDICATES FEW OR NO CLOUDS BELOW 12,000 FEET WITH NO
SIGNIFICANT WEATHER AND/OR OBSTRUCTIONS TO VISIBILITY.

AZZ001>003-036-261800-
NORTHWEST ARIZONA

CITY           SKY/WX    TMP DP  RH WIND       PRES   REMARKS
BULLHEAD CITY  SUNNY     48  18  29 N13       30.09R
KINGMAN        SUNNY     37  14  38 NE5       30.03R WCI  33
$$

AZZ004>008-015-016-018-261800-
NORTH CENTRAL ARIZONA

CITY           SKY/WX    TMP DP  RH WIND       PRES   REMARKS
GRAND CANYON   MOSUNNY   22  16  78 W7        29.88R WCI  13
PRESCOTT       SUNNY     31  15  52 NW8       29.95R WCI  23
FLAGSTAFF      SUNNY     23  11  60 W6        29.86R WCI  16
PAYSON         SUNNY     30  14  51 CALM      29.95R
PAGE           SUNNY     36  10  34 NW9       29.88R WCI  29
$$

AZZ009>014-017-261800-
NORTHEAST ARIZONA

CITY           SKY/WX    TMP DP  RH WIND       PRES   REMARKS
WINSLOW        MOSUNNY   32  15  49 W6        29.92R WCI  26
SAINT JOHNS    SUNNY     26  16  65 W10       29.89R WCI  16
WINDOW ROCK    MOSUNNY   22  14  71 CALM      29.82R
SHOW LOW       SUNNY     25   9  50 SW8       29.91R WCI  16
$$

AZZ023-261800-
GREATER PHOENIX AREA

CITY           SKY/WX    TMP DP  RH WIND       PRES   REMARKS
PHOENIX        SUNNY     46  19  34 CALM      30.03R
BUCKEYE          N/A     43  23  45 NW3       30.05R
GLENDALE       SUNNY     45  21  39 CALM      30.05R
LUKE AFB       SUNNY     44  21  39 E1        30.03R
DEER VALLEY    SUNNY     42  19  39 CALM      30.02R
SCOTTSDALE     SUNNY     45  19  35 CALM      30.03R
MESA-FALCON    SUNNY     41  16  36 NE3       30.03R
MESA-GATEWAY   SUNNY    N/A N/A N/A SE5       30.04R
CHANDLER       SUNNY     45  19  36 CALM      30.04R
$$

AZZ027-028-261800-
SOUTHWEST MARICOPA COUNTY AND PINAL COUNTY

CITY           SKY/WX    TMP DP  RH WIND       PRES   REMARKS
CASA GRANDE    FAIR      45  19  36 CALM      30.03R
GILA BEND      FAIR      49  16  26 W5        30.06R
$$

AZZ503-504-507>509-261800-
SOUTHEAST ARIZONA

CITY           SKY/WX    TMP DP  RH WIND       PRES   REMARKS
TUCSON         SUNNY     46  21  37 CALM      30.03R
DAVIS-MONTHAN  SUNNY     44  19  35 VRB3      30.01R
RYAN FIELD       N/A     48  23  37 W7        30.03R
NOGALES        MOSUNNY   42  30  62 VRB3      29.99R
SIERRA VISTA   MOSUNNY   40  20  44 NW6       29.97R
DOUGLAS        CLOUDY    41  25  53 N8        29.99R
SAFFORD        SUNNY     44  14  29 NW13      29.97R
$$

AZZ020-021-025-026-031-261800-
SOUTHWEST ARIZONA

CITY           SKY/WX    TMP DP  RH WIND       PRES   REMARKS
YUMA           SUNNY    N/A N/A N/A W6        30.09R
$$

CAZ031-033-041-043-047-048-061-261800-
SOUTHERN CALIFORNIA

CITY           SKY/WX    TMP DP  RH WIND       PRES   REMARKS
DOWNTOWN L.A.  SUNNY     49  26  41 CALM      30.07R
L.A. AIRPORT   SUNNY     51  24  34 CALM      30.08R
SAN DIEGO      SUNNY     55  21  26 E3        30.08R
BURBANK        SUNNY     55  14  19 CALM      30.06R
ONTARIO        SUNNY     53  13  20 NE21G37   30.04S
RIVERSIDE      SUNNY     53  13  20 N9G17     30.08R
PALM SPRINGS   SUNNY     56  11  16 VRB7      30.14R
EL CENTRO NAS  SUNNY     50  27  40 SW5       30.12R
IMPERIAL       SUNNY     53  23  31 W3        30.11R
BLYTHE         SUNNY     50  18  28 W3        30.09R
NEEDLES        SUNNY     50  13  22 N13       30.09R
$$

NVZ020-UTZ003-261800-
SOUTHERN NEVADA-UTAH

CITY           SKY/WX    TMP DP  RH WIND       PRES   REMARKS
LAS VEGAS      FAIR      44  10  25 NW16G24   30.04R
SALT LAKE CITY CLOUDY    27  21  78 N9        30.00R WCI  18
$$

NMZ009-TXZ055-261800-
NEW MEXICO-WEST TEXAS

CITY           SKY/WX    TMP DP  RH WIND       PRES   REMARKS
ALBUQUERQUE    MOSUNNY   28  21  75 SW14      29.86R WCI  17
EL PASO        LGT RAIN  38  33  82 S6        29.97R WCI  33
$$


........................KEY........................
SKY/WX - SKY CONDITION/WEATHER
TMP    - TEMPERATURE IN FAHRENHEIT
DP     - DEW POINT IN FAHRENHEIT
RH     - RELATIVE HUMIDITY IN PERCENT
WIND   - DIRECTION AND SPEED IN MILES PER HOUR (MPH)
VRB    - VARIABLE WIND DIRECTION
PRES   - MEAN SEA LEVEL PRESSURE IN INCHES OF MERCURY
         F - FALLING PRESSURE   R - RISING PRESSURE
         S - STEADY PRESSURE
VSB    - VISIBILITY IN MILES
HX     - HEAT INDEX IN FAHRENHEIT
WCI    - WIND CHILL INDEX IN FAHRENHEIT
TC     - TEMPERATURE IN CELSIUS WHICH IS ALSO KNOWN AS
         TEMPERATURE IN CENTIGRADE
AFB    - AIR FORCE BASE
         LUKE AFB IS LUKE AIR FORCE BASE
         DAVIS-MONTHAN IS DAVIS-MONTHAN AIR FORCE BASE
NAS    - NAVAL AIR STATION
         EL CENTRO NAS IS EL CENTRO NAVAL AIR STATION
N/A    - NOT AVAILABLE



USA.gov is the U.S. government's official web portal to all federal, state and local government web resources and services.